W5YIU-13 Weather Reports


time (UTC)temp
C
wind
direction
speed
KPH
gust
KPH
rain 1hr
cm
rain 24hr
cm
rain mn
cm
humidity
%
barometer
mb
20260510083630 22 0 0.0 1.6 0.00 0.03 0.00 97 1005.8
20260510083131 22 0 0.0 4.8 0.00 0.03 0.00 97 1005.8
20260510082626 22 0 0.0 6.4 0.00 0.03 0.00 97 1005.7
20260510082127 22 0 0.0 6.4 0.00 0.03 0.00 97 1005.7
20260510081626 22 0 0.0 3.2 0.00 0.03 0.00 97 1005.7
20260510081126 22 0 0.0 3.2 0.00 0.03 0.00 97 1005.7
20260510080627 22 96 0.0 3.2 0.00 0.03 0.00 97 1005.7
20260510080127 22 113 0.0 3.2 0.00 0.03 0.00 97 1005.7
20260510075627 22 0 0.0 3.2 0.00 0.03 0.00 97 1005.7
20260510075127 22 0 0.0 3.2 0.00 0.03 0.00 97 1005.7
20260510074625 22 94 0.0 3.2 0.00 0.03 0.00 97 1005.8
20260510074124 22 0 0.0 1.6 0.00 0.03 0.00 95 1005.9
20260510073621 22 0 0.0 0.0 0.00 0.03 0.00 95 1005.9
20260510073122 22 0 0.0 0.0 0.00 0.03 0.00 94 1005.9
20260510072622 23 0 0.0 0.0 0.00 0.03 0.00 94 1006.1
20260510072122 23 0 0.0 0.0 0.00 0.03 0.00 94 1006.1
20260510071622 23 0 0.0 0.0 0.00 0.03 0.00 94 1006.0
20260510071122 23 0 0.0 0.0 0.00 0.03 0.00 94 1006.0
20260510070623 23 0 0.0 1.6 0.00 0.03 0.00 94 1006.1
20260510070122 23 0 0.0 1.6 0.00 0.03 0.00 94 1006.1
20260510065621 23 0 0.0 1.6 0.00 0.03 0.00 94 1006.0
20260510065121 23 236 0.0 3.2 0.00 0.03 0.00 94 1006.0
20260510064619 23 0 0.0 3.2 0.00 0.03 0.00 94 1006.0
20260510064121 23 0 0.0 1.6 0.00 0.03 0.00 94 1006.0
20260510063619 23 0 0.0 1.6 0.00 0.03 0.00 94 1006.0
20260510063121 23 0 0.0 1.6 0.00 0.03 0.00 94 1006.0
20260510062620 23 72 0.0 1.6 0.00 0.03 0.00 94 1006.0
20260510062117 23 0 0.0 3.2 0.00 0.03 0.00 94 1006.0
20260510061615 23 0 0.0 3.2 0.00 0.03 0.00 94 1006.0
20260510061116 23 0 0.0 3.2 0.00 0.03 0.00 94 1006.0
20260510060615 23 0 0.0 3.2 0.00 0.03 0.00 94 1006.1
20260510060121 23 0 0.0 4.8 0.00 0.03 0.00 94 1006.1
20260510055621 23 0 0.0 3.2 0.00 0.03 0.00 94 1006.1
20260510055120 23 0 0.0 3.2 0.00 0.03 0.00 94 1006.1
20260510054611 23 0 0.0 3.2 0.00 0.03 0.00 94 1006.1
20260510054109 23 0 0.0 3.2 0.00 0.03 0.00 93 1006.1
20260510053608 23 0 0.0 3.2 0.00 0.03 0.00 93 1006.2
20260510053112 23 0 0.0 4.8 0.00 0.03 0.00 93 1006.2
20260510052606 23 0 0.0 4.8 0.00 0.03 0.00 93 1006.2
20260510052106 23 98 0.0 4.8 0.00 0.03 0.00 94 1006.3
20260510051611 23 0 0.0 4.8 0.00 0.03 0.00 93 1006.3
20260510051106 23 0 0.0 4.8 0.00 0.03 0.00 93 1006.3
20260510050606 23 0 0.0 4.8 0.00 0.03 0.00 93 1006.3
20260510050106 23 0 0.0 4.8 0.00 0.03 0.00 93 1006.3
20260510045606 23 0 0.0 3.2 0.00 0.03 0.03 92 1006.2
20260510045111 23 0 0.0 3.2 0.00 0.03 0.03 92 1006.2
20260510044604 23 0 0.0 3.2 0.00 0.03 0.03 92 1006.3
20260510044103 23 0 0.0 3.2 0.00 0.03 0.03 91 1006.3
20260510043601 23 114 0.0 4.8 0.00 0.03 0.03 91 1006.4
20260510043101 23 131 0.0 4.8 0.00 0.03 0.03 91 1006.5
20260510042600 23 0 0.0 3.2 0.00 0.03 0.03 90 1006.4
20260510042101 24 313 0.0 3.2 0.00 0.03 0.03 90 1006.4
20260510041601 24 0 0.0 3.2 0.00 0.03 0.03 90 1006.4
20260510041101 24 0 0.0 3.2 0.00 0.03 0.03 89 1006.4
20260510040557 24 56 0.0 3.2 0.00 0.03 0.03 89 1006.4
20260510040052 24 39 0.0 3.2 0.00 0.03 0.03 89 1006.3
20260510035552 24 354 0.0 6.4 0.00 0.03 0.03 89 1006.3
20260510035049 24 63 1.6 6.4 0.00 0.03 0.03 88 1006.4
20260510034550 25 115 1.6 6.4 0.00 0.03 0.03 89 1006.5
20260510034049 25 0 1.6 6.4 0.00 0.03 0.03 89 1006.6
20260510033550 25 72 1.6 4.8 0.00 0.03 0.03 89 1006.6
20260510033047 25 336 1.6 11.3 0.00 0.03 0.03 89 1006.6
20260510032547 25 89 3.2 11.3 0.00 0.03 0.03 90 1006.7
20260510032047 25 107 1.6 8.0 0.00 0.03 0.03 92 1006.6
20260510031547 25 173 1.6 6.4 0.00 0.03 0.03 92 1006.5
20260510031046 25 127 1.6 6.4 0.00 0.03 0.03 92 1006.6
20260510030547 25 0 1.6 9.7 0.00 0.03 0.03 91 1006.4
20260510030047 24 337 1.6 9.7 0.00 0.03 0.03 91 1006.4
20260510025547 24 324 1.6 9.7 0.00 0.03 0.03 90 1006.4
20260510025047 24 110 1.6 9.7 0.00 0.03 0.03 89 1006.2
20260510024544 23 103 1.6 4.8 0.00 0.03 0.03 89 1006.0
20260510024051 23 0 0.0 3.2 0.00 0.03 0.03 89 1005.8
20260510023545 23 0 0.0 3.2 0.00 0.03 0.03 89 1005.6
20260510023041 23 0 0.0 3.2 0.00 0.03 0.03 88 1005.3
20260510022538 23 0 0.0 3.2 0.00 0.03 0.03 87 1005.2
20260510022036 23 0 0.0 3.2 0.00 0.03 0.03 86 1005.0
20260510021533 23 0 0.0 1.6 0.00 0.03 0.03 85 1004.9
20260510021032 23 0 0.0 3.2 0.00 0.03 0.03 84 1004.8
20260510020535 23 0 0.0 3.2 0.00 0.03 0.03 84 1004.7
20260510020033 24 0 0.0 3.2 0.00 0.03 0.03 83 1004.5
20260510015533 24 47 0.0 3.2 0.00 0.03 0.03 82 1004.3
20260510015033 24 88 0.0 1.6 0.00 0.03 0.03 81 1004.1
20260510014532 25 0 0.0 1.6 0.00 0.03 0.03 80 1004.0
20260510014030 25 0 0.0 1.6 0.00 0.03 0.03 78 1003.9
20260510013530 25 0 0.0 1.6 0.03 0.03 0.03 78 1004.0
20260510013030 25 0 0.0 0.0 0.03 0.03 0.03 76 1003.9
20260510012531 25 0 0.0 3.2 0.03 0.03 0.03 75 1003.9
20260510012027 25 0 0.0 3.2 0.03 0.03 0.03 74 1003.9
20260510011524 26 0 0.0 4.8 0.03 0.03 0.03 73 1004.0
20260510011025 26 0 1.6 4.8 0.03 0.03 0.03 72 1004.1
20260510010525 26 299 1.6 6.4 0.03 0.03 0.03 72 1004.1
20260510010025 26 122 1.6 6.4 0.00 0.00 0.00 75 1004.1
20260510005525 27 112 1.6 6.4 0.00 0.00 0.00 74 1004.0
20260510005025 28 92 0.0 4.8 0.00 0.00 0.00 69 1003.8
20260510004525 28 0 0.0 3.2 0.00 0.00 0.00 67 1003.6
20260510004025 28 343 0.0 8.0 0.00 0.00 0.00 64 1003.6
20260510003522 29 0 1.6 9.7 0.00 0.00 0.00 61 1003.2
20260510003023 29 315 1.6 9.7 0.00 0.00 0.00 62 1003.3
20260510002523 30 228 1.6 9.7 0.00 0.00 0.00 64 1003.5
20260510002028 30 246 0.0 3.2 0.00 0.00 0.00 68 1003.2
20260510001523 31 102 0.0 4.8 0.00 0.00 0.00 67 1003.0
20260510001022 31 112 0.0 4.8 0.00 0.00 0.00 67 1003.0
20260510000523 31 0 0.0 3.2 0.00 0.00 0.00 67 1003.1
20260510000022 31 88 0.0 3.2 0.00 0.00 0.00 68 1003.1
20260509235521 32 0 0.0 1.6 0.00 0.00 0.00 69 1003.1
20260509235022 32 0 0.0 0.0 0.00 0.00 0.00 67 1002.9
20260509234521 32 0 0.0 0.0 0.00 0.00 0.00 66 1003.0
20260509234022 32 0 0.0 0.0 0.00 0.00 0.00 66 1002.8
20260509233522 32 0 0.0 0.0 0.00 0.00 0.00 65 1002.9
20260509233022 32 0 0.0 0.0 0.00 0.00 0.00 64 1002.9
20260509232520 32 0 0.0 3.2 0.00 0.00 0.00 63 1002.9
20260509232017 32 0 0.0 3.2 0.00 0.00 0.00 65 1002.8
20260509231520 33 0 0.0 3.2 0.00 0.00 0.00 64 1002.9
20260509231019 33 0 0.0 3.2 0.00 0.00 0.00 61 1002.9
20260509230514 33 0 0.0 0.0 0.00 0.00 0.00 60 1002.9
20260509230013 34 0 0.0 0.0 0.00 0.00 0.00 60 1002.7
20260509225512 35 0 0.0 3.2 0.00 0.00 0.00 59 1002.6
20260509225010 36 0 0.0 3.2 0.00 0.00 0.00 58 1002.7
20260509224510 36 336 0.0 1.6 0.00 0.00 0.00 55 1002.6
20260509224010 37 0 0.0 1.6 0.00 0.00 0.00 55 1002.6
20260509223509 37 0 0.0 4.8 0.00 0.00 0.00 53 1002.7
20260509223008 37 0 0.0 4.8 0.00 0.00 0.00 54 1002.7
20260509222509 37 107 0.0 4.8 0.00 0.00 0.00 52 1002.6
20260509222009 38 0 0.0 3.2 0.00 0.00 0.00 52 1002.6
20260509221508 38 141 0.0 3.2 0.00 0.00 0.00 52 1002.5
20260509220945 38 0 0.0 3.2 0.00 0.00 0.00 53 1002.5
20260509220443 38 0 0.0 3.2 0.00 0.00 0.00 52 1002.5
20260509215939 38 308 0.0 3.2 0.00 0.00 0.00 53 1002.5
20260509215440 38 321 0.0 3.2 0.00 0.00 0.00 52 1002.5
20260509214940 39 0 0.0 3.2 0.00 0.00 0.00 51 1002.5
20260509214440 38 0 0.0 3.2 0.00 0.00 0.00 53 1002.5
20260509213939 38 0 0.0 4.8 0.00 0.00 0.00 55 1002.5
20260509213445 38 0 0.0 4.8 0.00 0.00 0.00 53 1002.5
20260509212940 38 0 0.0 4.8 0.00 0.00 0.00 54 1002.6
20260509212438 37 322 0.0 4.8 0.00 0.00 0.00 54 1002.6
20260509211937 37 0 0.0 4.8 0.00 0.00 0.00 54 1002.6
20260509211437 36 0 0.0 4.8 0.00 0.00 0.00 57 1002.7
20260509210940 36 109 0.0 4.8 0.00 0.00 0.00 57 1002.7
20260509210433 36 139 0.0 3.2 0.00 0.00 0.00 57 1002.8
20260509205933 35 96 0.0 3.2 0.00 0.00 0.00 60 1002.8
20260509205434 35 0 0.0 3.2 0.00 0.00 0.00 62 1002.9
20260509204934 35 0 0.0 3.2 0.00 0.00 0.00 63 1003.0
20260509204429 34 0 0.0 3.2 0.00 0.00 0.00 63 1003.1
20260509203928 33 0 0.0 3.2 0.00 0.00 0.00 67 1003.3
20260509203428 34 277 0.0 3.2 0.00 0.00 0.00 64 1003.3
20260509202929 34 0 0.0 3.2 0.00 0.00 0.00 64 1003.3
20260509202430 34 0 0.0 3.2 0.00 0.00 0.00 63 1003.4
20260509201934 34 0 0.0 3.2 0.00 0.00 0.00 62 1003.4
20260509171214 31 286 1.6 4.8 0.00 0.00 0.00 73 1005.1
20260509170714 31 124 0.0 3.2 0.00 0.00 0.00 75 1005.0
20260509170219 30 0 0.0 3.2 0.00 0.00 0.00 77 1005.1
20260509165702 28 85 1.6 1.6 0.00 0.00 0.00 84 1005.0
20260509164330 28 0 0.0 3.2 0.00 0.00 0.00 86 1005.0
20260509163818 27 0 0.0 1.6 0.00 0.00 0.00 87 1005.2
20260509162130 27 0 0.0 0.0 0.00 0.00 0.00 86 1005.4
20260509161629 27 0 0.0 0.0 0.00 0.00 0.00 86 1005.5
20260509161129 26 0 0.0 1.6 0.00 0.00 0.00 88 1005.6
20260509160630 26 0 0.0 1.6 0.00 0.00 0.00 88 1005.5
20260509160128 26 0 0.0 1.6 0.00 0.00 0.00 88 1005.6
20260509155600 26 0 0.0 1.6 0.00 0.00 0.00 89 1005.6
20260509155100 26 0 0.0 1.6 0.00 0.00 0.00 90 1005.5
20260509154559 26 0 0.0 1.6 0.00 0.00 0.00 89 1005.6
20260509154100 26 121 0.0 1.6 0.00 0.00 0.00 90 1005.7
20260509153600 26 0 0.0 1.6 0.00 0.00 0.00 90 1005.8
20260509153100 26 124 0.0 3.2 0.00 0.00 0.00 90 1005.8
20260509152601 26 0 0.0 3.2 0.00 0.00 0.00 89 1005.8
20260509152102 26 0 0.0 1.6 0.00 0.00 0.00 90 1005.7
20260509151546 26 114 0.0 1.6 0.00 0.00 0.00 89 1005.7
20260509151046 26 0 0.0 1.6 0.00 0.00 0.00 90 1005.7
20260509150532 26 0 0.0 0.0 0.00 0.00 0.00 91 1005.5
20260509150032 26 0 0.0 1.6 0.00 0.00 0.00 92 1005.5
20260509145531 25 0 0.0 1.6 0.00 0.00 0.00 91 1005.4
20260509145032 25 0 0.0 0.0 0.00 0.00 0.00 91 1005.3
20260509144530 25 0 0.0 1.6 0.00 0.00 0.00 92 1005.3
20260509144030 25 0 0.0 1.6 0.00 0.00 0.00 93 1005.0
20260509143531 25 0 0.0 0.0 0.00 0.00 0.00 94 1005.1
20260509143030 25 0 0.0 0.0 0.00 0.00 0.00 95 1005.2
20260509142522 25 0 0.0 0.0 0.00 0.00 0.00 95 1005.2
20260509142017 25 0 0.0 0.0 0.00 0.00 0.00 96 1005.2
20260509141517 24 0 0.0 0.0 0.00 0.00 0.00 96 1005.0
20260509141002 24 0 0.0 0.0 0.00 0.00 0.00 96 1004.9
20260509140501 24 0 0.0 1.6 0.00 0.00 0.00 96 1004.7
20260509140002 24 0 0.0 1.6 0.00 0.00 0.00 96 1004.7
20260509135502 24 0 0.0 1.6 0.00 0.00 0.00 96 1004.9
20260509135001 24 0 0.0 1.6 0.00 0.00 0.00 96 1005.0
20260509134502 24 86 0.0 1.6 0.00 0.00 0.00 97 1005.1
20260509134002 24 0 0.0 0.0 0.00 0.00 0.00 97 1005.2
20260509133507 24 0 0.0 0.0 0.00 0.00 0.00 97 1005.2
20260509133002 23 0 0.0 1.6 0.00 0.00 0.00 98 1005.1
20260509132502 23 0 0.0 1.6 0.00 0.00 0.00 99 1005.2
20260509132003 23 0 0.0 1.6 0.00 0.00 0.00 99 1005.7
20260509131502 23 0 0.0 1.6 0.00 0.00 0.00 99 1005.6
20260509130949 23 0 0.0 1.6 0.00 0.00 0.00 99 1005.8
20260509130432 23 0 0.0 3.2 0.00 0.00 0.00 99 1005.7
20260509125934 23 45 0.0 3.2 0.00 0.00 0.00 99 1005.6
20260509125431 23 0 0.0 0.0 0.00 0.00 0.00 99 1005.6
20260509124934 23 0 0.0 0.0 0.00 0.00 0.00 99 1005.6
20260509124431 22 0 0.0 0.0 0.00 0.00 0.00 99 1005.5
20260509123933 22 0 0.0 1.6 0.00 0.00 0.00 99 1005.5
20260509123432 22 0 0.0 1.6 0.00 0.00 0.00 99 1005.4
20260509122934 22 0 0.0 1.6 0.00 0.00 0.00 99 1005.4
20260509122432 22 0 0.0 0.0 0.00 0.00 0.00 99 1005.3
20260509121934 22 0 0.0 0.0 0.00 0.00 0.00 99 1005.2
20260509121432 22 0 0.0 1.6 0.00 0.00 0.00 99 1005.1
20260509120939 22 0 0.0 1.6 0.00 0.00 0.00 99 1005.0
20260509120432 22 0 0.0 0.0 0.00 0.00 0.00 99 1005.0
20260509115919 22 0 0.0 0.0 0.00 0.00 0.00 99 1004.9
20260509115418 22 0 0.0 0.0 0.00 0.00 0.00 99 1004.8
20260509114924 22 0 0.0 1.6 0.00 0.00 0.00 99 1004.7
20260509114419 22 0 0.0 1.6 0.00 0.00 0.00 99 1004.9
20260509113918 22 0 0.0 1.6 0.00 0.00 0.00 99 1005.2
20260509113419 22 0 0.0 1.6 0.00 0.00 0.00 99 1005.1
20260509112919 22 0 0.0 0.0 0.00 0.00 0.00 99 1005.2
20260509112419 22 0 0.0 0.0 0.00 0.00 0.00 99 1005.2
20260509111905 22 0 0.0 0.0 0.00 0.00 0.00 99 1005.3
20260509111404 22 0 0.0 0.0 0.00 0.00 0.00 99 1005.3
20260509110904 22 0 0.0 0.0 0.00 0.00 0.00 99 1005.2
20260509110349 22 0 0.0 0.0 0.00 0.00 0.00 99 1005.2
20260509105834 22 0 0.0 1.6 0.00 0.00 0.00 99 1005.3
20260509105335 22 0 0.0 1.6 0.00 0.00 0.00 99 1005.3
20260509104835 22 25 0.0 1.6 0.00 0.00 0.00 99 1005.2
20260509104334 22 117 0.0 1.6 0.00 0.00 0.00 99 1005.1
20260509103836 22 125 0.0 1.6 0.00 0.00 0.00 100 1004.9
20260509103335 22 0 0.0 0.0 0.00 0.00 0.00 100 1004.9
20260509102835 22 0 0.0 0.0 0.00 0.00 0.00 99 1004.8
20260509102335 22 0 0.0 0.0 0.00 0.00 0.00 99 1004.8
20260509101835 22 0 0.0 0.0 0.00 0.00 0.00 99 1004.7
20260509101336 22 0 0.0 0.0 0.00 0.00 0.00 99 1004.6
20260509100835 22 0 0.0 0.0 0.00 0.00 0.00 99 1004.4
20260509100335 22 0 0.0 0.0 0.00 0.00 0.00 99 1004.2
20260509095835 22 0 0.0 0.0 0.00 0.00 0.00 98 1004.0
20260509095335 22 0 0.0 0.0 0.00 0.00 0.00 98 1003.9
20260509094835 22 0 0.0 0.0 0.00 0.00 0.00 99 1004.0
20260509094336 22 0 0.0 0.0 0.00 0.00 0.00 99 1004.1
20260509093835 22 0 0.0 0.0 0.00 0.00 0.00 99 1004.1
20260509093341 22 0 0.0 0.0 0.00 0.00 0.00 99 1004.3
20260509092822 23 0 0.0 0.0 0.00 0.00 0.00 99 1004.6
20260509092323 23 0 0.0 0.0 0.00 0.00 0.00 99 1004.6
20260509091822 23 0 0.0 0.0 0.00 0.00 0.00 99 1004.7
20260509091322 23 0 0.0 0.0 0.00 0.00 0.00 98 1004.7
20260509090824 23 0 0.0 0.0 0.00 0.00 0.00 98 1004.8
20260509090310 23 0 0.0 0.0 0.00 0.00 0.00 98 1004.7
20260509085737 23 0 0.0 0.0 0.00 0.00 0.00 98 1004.8
20260509085236 23 0 0.0 0.0 0.00 0.00 0.00 98 1004.7
20260509084737 23 0 0.0 0.0 0.00 0.00 0.00 98 1004.7
20260509084238 23 0 0.0 0.0 0.00 0.00 0.00 98 1004.9
20260509083735 23 0 0.0 0.0 0.00 0.00 0.00 98 1004.9